Flag for Australia Weather past 2 weeks in Traralgon, Victoria, Australia

Now
57 °F

Cool.


Feels Like: 57 °F
Forecast: 49 / 67 °F
Wind: 3 mph from Northeast

Location: Latrobe Valley Airport

Current Time: Jan 28, 2015 at 8:40:40 AM

Latest Report: Jan 28, 2015 at 7:00 AM


Visibility: N/A

Pressure: 30.07 "Hg

Humidity: 81%

Dew point: 51 °F

Location of TraralgonLocation

Historic Weather in Traralgon — Graph

°F

Traralgon temperature yesterday

Maximum temperature yesterday: 63 °F (at 3:00 PM)
Minimum temperature yesterday: 53 °F (at 6:00 AM)
Average temperature yesterday: 59 °F

Past Weeks' High & Low Weather Summary

 TemperatureHumidityPressure
High91 °F (Jan 22, 4:00 PM)100% (Jan 13, 7:00 AM)30.09 "Hg (Jan 13, 7:00 AM)
Low43 °F (Jan 19, 7:00 AM)38% (Jan 16, 7:00 PM)29.35 "Hg (Jan 14, 3:00 AM)
Average65 °F73%29.78 "Hg
* Reported Jan 13 7:00 AM — Jan 28 7:00 AM, Traralgon, Weather by CustomWeather, © 2014

Note: Actual official high and low records may vary slightly from our data, if they occured in-between our weather recording intervals... More about our weather records

Advertising

Traralgon weather history for previous 24 hours

 ConditionsComfort  
Time TempWeatherWind HumidityBarometerVisibility
7:00 AM
Jan 28
57 °FCool.3 mph81%30.07 "HgN/A
6:00 AM56 °FOvercast.3 mph80%30.06 "HgN/A
4:00 AM56 °FCool.2 mph82%30.03 "HgN/A
3:00 AM54 °FOvercast.No wind88%30.04 "HgN/A
1:00 AM57 °FCool.3 mph76%30.06 "HgN/A
12:00 AM57 °FPassing clouds.1 mph73%30.07 "HgN/A
10:00 PM
Jan 27
59 °FCool.5 mph69%30.06 "HgN/A
9:00 PM60 °FOvercast.5 mph67%30.05 "HgN/A
7:00 PM62 °FMild.6 mph63%30.02 "HgN/A
6:00 PM62 °FOvercast.6 mph65%30.01 "HgN/A
4:00 PM63 °FMild.6 mph61%30.02 "HgN/A
3:00 PM63 °FOvercast.5 mph60%30.02 "HgN/A
1:00 PM63 °FMild.6 mph60%30.03 "HgN/A
12:00 PM63 °FOvercast.5 mph62%30.04 "HgN/A
10:00 AM61 °FCool.3 mph65%30.04 "HgN/A
9:00 AM58 °FOvercast.No wind70%30.04 "HgN/A
Weather by CustomWeather, © 2014

See weather overviewHow to use our weather pages